User: anonymous   Login
Location: ??
(35.5052°N, 139.7262°E)
Time: 15:13:24
(UTC+00:00)
Language:

Cosmos 1932 - Orbit

View from above orbital plane
View from above orbital plane
View from above satellite
View from above satellite

Ground track
Ground track

The orbit data is extracted from the following two-line orbital elements,

1 18957U 88019A   21264.66313980 -.00000090  00000-0 -24217-5 0  9999
2 18957  65.0426 253.0501 0029373 100.8882 259.5484 13.79690404690535
Epoch (UTC): 21 September 2021 15:54:55
Eccentricity: 0.0029373
inclination: 65.0426°
perigee height: 943 km
apogee height: 986 km
right ascension of ascending node: 253.0501°
argument of perigee: 100.8882°
revolutions per day: 13.79690404
mean anomaly at epoch: 259.5484°
orbit number at epoch: 69053

The dashed part of the orbit path shows where the satellite is in the earth's shadow,  

DLR